[[{"header":{"parameterUnit":"m.s-1","parameterCategory":1,"la1":30.2991,"la2":30.254,"lo1":-89.0895,"lo2":-89.0444,"dy":0.0017,"dx":0.0017,"nx":28,"ny":28,"refTime":"2025-02-06T09:00:00:Z","depth":0,"parameterNumber":2,"parameterNumberName":"U-component_of_WINDS"},"data":[0,0,0,0,0,0,0,0,0,0,0,0,0,0,0,0,0,0,0,0,0,0,0,0,0,0,0,0,0,0,0,0,0,0,0,0,0,0,0,0,0,0,0,0,0,0,0,0,0,0,0,0,0,0,0,0,0,0,-1.0537,-1.0537,0,-1.0593,-1.0594,-1.0595,-1.0606,-1.0606,-1.0605,-1.0605,-1.0665,-1.0667,-1.0669,0,0,0,0,0,0,0,0,0,0,0,0,0,-1.0442,-1.0444,-1.0537,-1.0537,-1.0538,-1.0593,-1.0594,-1.0595,-1.0606,-1.0605,-1.0605,-1.0604,-1.0664,-1.0666,-1.0669,0,0,0,0,0,0,0,0,0,0,0,0,0,-1.0489,-1.0444,-1.0537,-1.055,-1.0552,-1.0593,-1.0594,-1.0595,-1.0606,-1.0605,-1.0605,-1.0604,-1.0663,-1.0666,-1.0669,-1.0701,0,0,-1.0678,-1.068,0,0,0,0,0,0,0,0,-1.0487,-1.0493,-1.0548,-1.055,-1.0552,-1.0592,-1.0582,-1.0631,-1.0606,-1.0586,-1.0605,-1.0604,-1.0641,-1.0646,-1.0658,-1.0704,-1.0706,-1.0679,-1.068,-1.0682,-1.0683,0,0,0,0,0,0,0,-1.0483,-1.049,-1.0559,-1.0548,-1.0551,-1.0555,-1.0561,-1.0592,-1.0617,-1.0587,-1.0588,-1.0595,-1.0642,-1.0655,-1.0659,-1.0707,-1.0678,-1.0681,-1.0683,-1.0684,-1.0783,-1.0784,0,0,0,0,0,0,-1.0477,-1.0488,-1.0557,-1.0561,-1.0517,-1.0557,-1.0564,-1.058,-1.0616,-1.0621,-1.0595,-1.0595,-1.065,-1.0656,-1.0662,-1.0702,-1.0682,-1.0684,-1.0686,-1.0783,-1.0784,-1.0784,0,0,0,0,0,0,-1.0475,-1.0483,-1.0555,-1.0525,-1.0534,-1.0559,-1.0577,-1.0581,-1.0594,-1.0622,-1.0627,-1.0604,-1.065,-1.0657,-1.0691,-1.0704,-1.0686,-1.0689,-1.0782,-1.0783,-1.0784,-1.0783,0,0,0,0,0,0,-1.0472,-1.0482,-1.0494,-1.0525,-1.0536,-1.0583,-1.0578,-1.0583,-1.0599,-1.0599,-1.0631,-1.0636,-1.065,-1.0687,-1.0694,-1.0708,-1.0691,-1.078,-1.0782,-1.0784,-1.0782,-1.0784,-1.0785,0,0,0,0,0,-1.0469,-1.0491,-1.0494,-1.0503,-1.055,-1.0583,-1.059,-1.0605,-1.06,-1.0612,-1.0631,-1.0635,-1.0702,-1.069,-1.0699,-1.0714,-1.078,-1.0782,-1.0783,-1.0781,-1.0783,-1.0785,0,0,0,0,0,0,-1.0462,-1.0496,-1.0499,-1.0532,-1.0555,-1.0585,-1.0601,-1.0607,-1.0632,-1.0631,-1.0649,-1.0656,-1.0689,-1.0705,-1.0691,-1.0747,-1.0741,-1.0744,-1.0736,-1.0738,-1.074,-1.0736,-1.0693,0,0,0,0,0,-1.0464,-1.0488,-1.0516,-1.0543,-1.0554,-1.0576,-1.0591,-1.06,-1.0625,-1.0634,-1.0655,-1.0679,-1.0706,-1.0723,-1.0749,-1.0784,-1.0792,-1.0799,-1.0801,-1.0802,-1.0805,-1.0826,-1.083,-1.0791,-1.0791,-1.0791,0,0,-1.0469,-1.0491,-1.0504,-1.0542,-1.056,-1.0585,-1.0583,-1.0609,-1.0628,-1.0639,-1.0672,-1.0688,-1.0716,-1.0751,-1.0768,-1.0765,-1.0818,-1.0804,-1.0805,-1.0808,-1.0829,-1.0832,-1.0836,-1.0792,-1.0792,-1.0791,0,0,-1.0491,-1.0509,-1.0534,-1.0553,-1.0581,-1.0595,-1.0601,-1.0631,-1.0642,-1.0676,-1.0684,-1.0707,-1.0752,-1.0773,-1.0789,-1.082,-1.0825,-1.0828,-1.0838,-1.0858,-1.0861,-1.0864,-1.0876,-1.088,-1.0831,-1.0831,-1.0831,0,-1.0494,-1.0531,-1.0546,-1.0572,-1.0589,-1.0599,-1.0624,-1.0642,-1.0678,-1.0689,-1.0686,-1.0744,-1.0763,-1.0804,-1.0811,-1.0824,-1.0832,-1.0824,-1.0859,-1.0862,-1.0865,-1.0877,-1.0881,-1.0831,-1.0831,-1.0831,-1.0831,0,-1.0534,-1.0559,-1.0576,-1.0609,-1.0628,-1.0654,-1.0674,-1.0691,-1.0699,-1.0715,-1.075,-1.0774,-1.0805,-1.0816,-1.0824,-1.0858,-1.0856,-1.0856,-1.0849,-1.0869,-1.088,-1.0885,-1.0831,-1.0831,-1.0831,-1.0831,0,0,-1.0553,-1.0594,-1.06,-1.0616,-1.0648,-1.0669,-1.0696,-1.0726,-1.0741,-1.0766,-1.0789,-1.0828,-1.0828,-1.0847,-1.0858,-1.0876,-1.09,-1.0874,-1.0875,-1.0878,-1.094,-1.094,-1.0944,-1.0904,-1.0905,-1.0905,-1.0938,0,-1.0579,-1.0626,-1.0641,-1.068,-1.0705,-1.0715,-1.0739,-1.0762,-1.0777,-1.0801,-1.0819,-1.0846,-1.0844,-1.0856,-1.0874,-1.0893,-1.0912,-1.0891,-1.0927,-1.0928,-1.092,-1.095,-1.095,-1.0979,-1.0942,-1.0943,-1.0943,0,-1.0616,-1.064,-1.0682,-1.0712,-1.0723,-1.0744,-1.0774,-1.0796,-1.0823,-1.0833,-1.0854,-1.0864,-1.0894,-1.0886,-1.0928,-1.0913,-1.0929,-1.0941,-1.0942,-1.0946,-1.0937,-1.0956,-1.0989,-1.0993,-1.095,-1.095,-1.0949,0,-1.0626,-1.067,-1.0701,-1.0714,-1.075,-1.0764,-1.078,-1.0806,-1.0824,-1.085,-1.0862,-1.0892,-1.0908,-1.0931,-1.095,-1.0942,-1.099,-1.0984,-1.1001,-1.1,-1.101,-1.101,-1.1047,-1.102,-1.102,-1.102,-1.102,0,-1.0654,-1.068,-1.0706,-1.0725,-1.0755,-1.0772,-1.0801,-1.0818,-1.0841,-1.0865,-1.0876,-1.0898,-1.092,-1.0946,-1.096,-1.0994,-1.1001,-1.1011,-1.1014,-1.101,-1.1009,-1.1021,-1.1019,-1.1021,-1.1021,-1.102,-1.102,0,-1.0671,-1.0689,-1.0724,-1.0755,-1.0763,-1.0784,-1.0811,-1.0831,-1.0847,-1.0877,-1.0885,-1.091,-1.0941,-1.0961,-1.1001,-1.1011,-1.1047,-1.105,-1.1038,-1.1039,-1.1055,-1.1054,-1.1102,-1.111,-1.1077,-1.1077,-1.1077,0,-1.0687,-1.0707,-1.074,-1.0757,-1.0772,-1.0798,-1.0816,-1.0835,-1.0853,-1.0886,-1.0902,-1.0933,-1.0959,-1.1008,-1.1031,-1.1062,-1.1066,-1.1081,-1.107,-1.1066,-1.1067,-1.1066,-1.1068,-1.1082,-1.1083,-1.1083,-1.1083,0,-1.0716,-1.0724,-1.0749,-1.0778,-1.0799,-1.0823,-1.0846,-1.0859,-1.0882,-1.0903,-1.0934,-1.0954,-1.0994,-1.1026,-1.1059,-1.1076,-1.1084,-1.1086,-1.1092,-1.1088,-1.108,-1.1085,-1.1043,-1.1085,-1.1085,-1.1084,-1.1084,-1.1084,-1.0734,-1.0752,-1.0778,-1.0806,-1.0826,-1.0848,-1.0869,-1.0887,-1.0913,-1.0947,-1.0957,-1.0989,-1.1017,-1.1062,-1.108,-1.1107,-1.1106,-1.1114,-1.1116,-1.1118,-1.1118,-1.1075,-1.1113,-1.1113,-1.1113,-1.1113,-1.1113,0,-1.0763,-1.0781,-1.0806,-1.0839,-1.0861,-1.0866,-1.0893,-1.0912,-1.094,-1.0965,-1.099,-1.1027,-1.1058,-1.1083,-1.1115,-1.1132,-1.1136,-1.114,-1.1139,-1.1143,-1.1117,-1.1109,-1.1136,-1.1136,-1.1136,-1.1136,-1.1136,-1.1136,-1.0781,-1.0813,-1.0825,-1.0867,-1.0885,-1.0916,-1.0932,-1.0953,-1.0973,-1.1013,-1.1038,-1.1054,-1.108,-1.1114,-1.1143,-1.115,-1.1162,-1.1164,-1.1172,-1.1147,-1.1145,-1.1142,-1.1135,-1.1167,-1.1167,-1.1196,-1.1196,-1.1197]},{"header":{"parameterUnit":"m.s-1","parameterCategory":1,"la1":30.2991,"la2":30.254,"lo1":-89.0895,"lo2":-89.0444,"dy":0.0017,"dx":0.0017,"nx":28,"ny":28,"refTime":"2025-02-06T09:00:00:Z","depth":0,"parameterNumber":3,"parameterNumberName":"V-component_of_WINDS"},"data":[0,0,0,0,0,0,0,0,0,0,0,0,0,0,0,0,0,0,0,0,0,0,0,0,0,0,0,0,0,0,0,0,0,0,0,0,0,0,0,0,0,0,0,0,0,0,0,0,0,0,0,0,0,0,0,0,0,0,3.9112,3.9113,0,3.9159,3.9159,3.916,3.9151,3.9151,3.915,3.9149,3.9195,3.9197,3.9199,0,0,0,0,0,0,0,0,0,0,0,0,0,3.9016,3.9018,3.9112,3.9113,3.9113,3.9159,3.9159,3.916,3.9152,3.9151,3.915,3.9149,3.9194,3.9196,3.9199,0,0,0,0,0,0,0,0,0,0,0,0,0,3.906,3.9018,3.9112,3.9115,3.9116,3.9158,3.9159,3.916,3.9152,3.9151,3.9149,3.9148,3.9193,3.9196,3.9199,3.9242,0,0,3.9208,3.9209,0,0,0,0,0,0,0,0,3.9057,3.9063,3.9114,3.9115,3.9116,3.9148,3.9142,3.9187,3.9152,3.9138,3.9149,3.9148,3.918,3.9184,3.9195,3.9244,3.9246,3.9208,3.921,3.9211,3.9212,0,0,0,0,0,0,0,3.9054,3.9061,3.9131,3.9115,3.9116,3.9113,3.9118,3.915,3.9165,3.9139,3.9139,3.9144,3.918,3.9193,3.9196,3.9246,3.9208,3.9211,3.9213,3.9214,3.9334,3.9335,0,0,0,0,0,0,3.905,3.9059,3.9129,3.9132,3.9083,3.9116,3.9122,3.9139,3.9165,3.9168,3.9145,3.9144,3.9188,3.9193,3.9198,3.9251,3.9211,3.9214,3.9216,3.9332,3.9334,3.9336,0,0,0,0,0,0,3.9048,3.9057,3.9127,3.9095,3.9104,3.9119,3.9139,3.914,3.9153,3.917,3.9172,3.9155,3.9187,3.9194,3.9231,3.9252,3.9216,3.9218,3.9331,3.9333,3.9335,3.9356,0,0,0,0,0,0,3.9046,3.9056,3.9073,3.9096,3.9106,3.916,3.914,3.9142,3.9158,3.9156,3.918,3.9182,3.9187,3.9227,3.9234,3.9256,3.9221,3.9329,3.9332,3.9334,3.9354,3.9359,3.9363,0,0,0,0,0,3.9042,3.9076,3.9073,3.9082,3.9127,3.9161,3.9167,3.9172,3.916,3.9177,3.9188,3.9181,3.9249,3.9231,3.9239,3.9262,3.9328,3.9331,3.9334,3.9352,3.9358,3.9363,0,0,0,0,0,0,3.9054,3.9079,3.9077,3.9119,3.9138,3.916,3.9181,3.9179,3.9202,3.9199,3.9204,3.9209,3.9248,3.9258,3.9238,3.9305,3.9286,3.9291,3.9297,3.9303,3.9308,3.9305,3.9223,0,0,0,0,0,3.9062,3.9089,3.9109,3.9144,3.9154,3.9166,3.9181,3.9184,3.9204,3.9212,3.9225,3.9245,3.927,3.9287,3.9311,3.9355,3.9361,3.9375,3.9379,3.9383,3.9388,3.9413,3.942,3.9346,3.9346,3.9346,0,0,3.9078,3.9095,3.9111,3.9147,3.9162,3.919,3.9173,3.9202,3.9223,3.9216,3.9253,3.9264,3.9285,3.9327,3.9346,3.9337,3.9409,3.9387,3.939,3.9393,3.9417,3.9424,3.943,3.9348,3.9348,3.9347,0,0,3.9122,3.9137,3.9169,3.9185,3.9208,3.9216,3.9224,3.9247,3.9254,3.9291,3.9287,3.9311,3.9355,3.9371,3.9385,3.9436,3.9431,3.9443,3.9468,3.9493,3.9499,3.9504,3.9524,3.953,3.9447,3.9447,3.9447,0,3.9139,3.918,3.9185,3.9216,3.9232,3.9228,3.9261,3.9276,3.9306,3.9317,3.9307,3.9362,3.9376,3.9422,3.9435,3.9446,3.9455,3.9441,3.9498,3.9503,3.9508,3.9527,3.9534,3.9449,3.9449,3.9449,3.9448,0,3.9201,3.923,3.9253,3.9283,3.9302,3.9333,3.9343,3.9361,3.9362,3.9371,3.9409,3.9426,3.9455,3.9466,3.9466,3.9512,3.9506,3.9496,3.9478,3.9516,3.9534,3.9541,3.9451,3.945,3.945,3.945,0,0,3.9254,3.9287,3.9296,3.931,3.9336,3.9359,3.939,3.9419,3.9435,3.9455,3.9483,3.952,3.9512,3.9528,3.953,3.9551,3.9592,3.9539,3.954,3.955,3.9645,3.9654,3.9662,3.9589,3.9591,3.9592,3.9644,0,3.9301,3.9358,3.9363,3.9413,3.9441,3.9437,3.9465,3.9484,3.9493,3.9517,3.9527,3.9555,3.9541,3.9551,3.9572,3.9583,3.9612,3.9579,3.9615,3.9616,3.9611,3.9671,3.9679,3.9728,3.9651,3.9652,3.9653,0,3.9364,3.9388,3.9442,3.9465,3.9477,3.9502,3.9529,3.9552,3.9574,3.9579,3.9597,3.9597,3.9629,3.9609,3.9654,3.9632,3.9646,3.9654,3.9656,3.9661,3.9638,3.9679,3.9744,3.9752,3.9664,3.9663,3.9662,0,3.94,3.9445,3.9484,3.9496,3.9524,3.9541,3.9554,3.9574,3.9591,3.9615,3.9626,3.9653,3.9668,3.9688,3.9695,3.9679,3.9741,3.972,3.9746,3.9746,3.9761,3.976,3.9831,3.9768,3.9767,3.9767,3.9767,0,3.9453,3.9486,3.95,3.9524,3.9561,3.9567,3.9604,3.9615,3.9633,3.9659,3.9657,3.9681,3.9688,3.9714,3.9719,3.9756,3.9763,3.9768,3.977,3.9769,3.9769,3.978,3.9778,3.9769,3.9769,3.9768,3.9768,0,3.95,3.951,3.9552,3.9576,3.9582,3.9609,3.9629,3.9652,3.966,3.9693,3.9701,3.9715,3.9745,3.9754,3.9789,3.9793,3.9837,3.9835,3.9831,3.9831,3.9858,3.9856,3.9939,3.9951,3.9879,3.988,3.988,0,3.9534,3.956,3.9586,3.9604,3.9618,3.9645,3.9663,3.967,3.9689,3.9716,3.9736,3.9765,3.979,3.9838,3.9851,3.9878,3.9877,3.9905,3.9882,3.9881,3.988,3.9879,3.9882,3.991,3.991,3.9911,3.9912,0,3.9595,3.9599,3.9625,3.9654,3.9675,3.9698,3.9719,3.9734,3.9743,3.9765,3.9796,3.9815,3.9852,3.9882,3.991,3.9922,3.9919,3.9919,3.9927,3.9928,3.9925,3.9928,3.9845,3.9917,3.9916,3.9916,3.9916,3.9916,3.9637,3.9661,3.9683,3.9713,3.973,3.9751,3.9774,3.9786,3.9812,3.9844,3.9846,3.988,3.9901,3.9939,3.9953,3.9979,3.9971,3.9982,3.9985,3.9988,3.9991,3.9919,3.9984,3.9984,3.9984,3.9984,3.9983,0,3.9699,3.9714,3.9741,3.9772,3.9795,3.979,3.9814,3.9834,3.9865,3.9885,3.9909,3.9946,3.9975,3.999,4.0019,4.0038,4.0037,4.0045,4.0045,4.0048,3.9996,3.9987,4.0046,4.0046,4.0046,4.0046,4.0046,4.0046,3.9734,3.9774,3.9781,3.9829,3.9843,3.9877,3.9892,3.9911,3.9927,3.9968,3.9993,4.0003,4.0022,4.0052,4.0079,4.0083,4.0094,4.0104,4.0107,4.0058,4.0052,4.0046,4.0038,4.0106,4.0106,4.0157,4.0157,4.0158]}]]